When you browse on this site, cookies collect data to enhance your experience and personalize the content and advertising you see.
Visit our Privacy Policy to learn more. By continuing to use the site, you agree to this use of cookies and data.
  • In Schweiz
  • Länderverzeichnis
  • Für 7 Tage
  • Wassertemperatur
  • Wetterkarte
  • Widgets
  • user-avatar
    Anmelden

    Stündliche Wetter Truto

    Heute, 19 September, Donnerstag

    Zeit Temperatur Niederschläge Wind Luftdruck Luftfeuchtigkeit
    00:00 +11°C° 0 mm 3 m/S 769 mmHg 84%
    01:00 +11°C° 0 mm 3 m/S 769 mmHg 85%
    02:00 +11°C° 0 mm 3 m/S 769 mmHg 85%
    03:00 +11°C° 0 mm 4 m/S 769 mmHg 86%
    04:00 +11°C° 0 mm 4 m/S 769 mmHg 87%
    05:00 +11°C° 0 mm 4 m/S 769 mmHg 88%
    06:00 +11°C° 0 mm 4 m/S 769 mmHg 89%
    07:00 +13°C° 0 mm 4 m/S 769 mmHg 85%
    08:00 +14°C° 0 mm 5 m/S 769 mmHg 81%
    09:00 +16°C° 0 mm 5 m/S 769 mmHg 77%
    10:00 +17°C° 0 mm 5 m/S 769 mmHg 75%
    11:00 +17°C° 0 mm 6 m/S 769 mmHg 73%
    12:00 +19°C° 0 mm 6 m/S 769 mmHg 71%
    13:00 +19°C° 0 mm 6 m/S 769 mmHg 71%
    14:00 +19°C° 0 mm 6 m/S 769 mmHg 71%
    15:00 +17°C° 0 mm 6 m/S 769 mmHg 72%
    16:00 +17°C° 0 mm 6 m/S 768 mmHg 75%
    17:00 +16°C° 0 mm 6 m/S 768 mmHg 79%
    18:00 +15°C° 0 mm 5 m/S 767 mmHg 82%
    19:00 +14°C° 0 mm 6 m/S 767 mmHg 84%
    20:00 +14°C° 0 mm 6 m/S 767 mmHg 86%
    21:00 +13°C° 0 mm 6 m/S 767 mmHg 88%
    22:00 +12°C° 0 mm 7 m/S 767 mmHg 88%
    23:00 +14°C° 0 mm 7 m/S 767 mmHg 88%

    Morgen, 20 September, Freitag

    Zeit Temperatur Niederschläge Wind Luftdruck Luftfeuchtigkeit
    00:00 +13°C° 0 mm 8 m/S 766 mmHg 88%
    01:00 +13°C° 0 mm 8 m/S 766 mmHg 88%
    02:00 +13°C° 0 mm 8 m/S 765 mmHg 87%
    03:00 +13°C° 0 mm 8 m/S 765 mmHg 87%
    04:00 +13°C° 0 mm 8 m/S 764 mmHg 85%
    05:00 +13°C° 0 mm 9 m/S 764 mmHg 84%
    06:00 +13°C° 0 mm 9 m/S 763 mmHg 82%
    07:00 +15°C° 0 mm 9 m/S 763 mmHg 76%
    08:00 +14°C° 0 mm 10 m/S 763 mmHg 71%
    09:00 +16°C° 0 mm 10 m/S 762 mmHg 65%
    10:00 +16°C° 0 mm 11 m/S 762 mmHg 63%
    11:00 +17°C° 0 mm 11 m/S 761 mmHg 61%
    12:00 +17°C° 0 mm 11 m/S 760 mmHg 59%
    13:00 +17°C° 0 mm 11 m/S 760 mmHg 59%
    14:00 +17°C° 0 mm 11 m/S 759 mmHg 59%
    15:00 +17°C° 0 mm 12 m/S 758 mmHg 60%
    16:00 +16°C° 0 mm 11 m/S 758 mmHg 60%
    17:00 +16°C° 0 mm 11 m/S 757 mmHg 61%
    18:00 +16°C° 0 mm 11 m/S 757 mmHg 61%
    19:00 +16°C° 0 mm 11 m/S 756 mmHg 62%
    20:00 +16°C° 0 mm 11 m/S 756 mmHg 63%
    21:00 +16°C° 0 mm 11 m/S 755 mmHg 63%
    22:00 +17°C° 0 mm 11 m/S 755 mmHg 63%
    23:00 +17°C° 0 mm 10 m/S 754 mmHg 63%

    übermorgen, 21 September, Samstag

    Zeit Temperatur Niederschläge Wind Luftdruck Luftfeuchtigkeit
    00:00 +17°C° 0 mm 10 m/S 753 mmHg 63%
    01:00 +17°C° 0 mm 10 m/S 753 mmHg 65%
    02:00 +16°C° 0 mm 10 m/S 752 mmHg 67%
    03:00 +16°C° 0 mm 10 m/S 752 mmHg 69%
    04:00 +16°C° 0 mm 10 m/S 751 mmHg 71%
    05:00 +16°C° 0 mm 10 m/S 750 mmHg 72%
    06:00 +16°C° 0 mm 10 m/S 750 mmHg 74%
    07:00 +17°C° 0.1 mm 10 m/S 750 mmHg 77%
    08:00 +17°C° 0.1 mm 10 m/S 750 mmHg 79%
    09:00 +18°C° 0.1 mm 10 m/S 750 mmHg 81%
    10:00 +18°C° 0 mm 9 m/S 749 mmHg 83%
    11:00 +18°C° 0 mm 9 m/S 749 mmHg 85%
    12:00 +18°C° 0 mm 9 m/S 749 mmHg 86%
    13:00 +20°C° 0 mm 8 m/S 748 mmHg 84%
    14:00 +20°C° 0 mm 7 m/S 748 mmHg 82%
    15:00 +21°C° 0 mm 6 m/S 747 mmHg 80%
    16:00 +20°C° 0.2 mm 7 m/S 747 mmHg 83%
    17:00 +20°C° 0.2 mm 7 m/S 746 mmHg 86%
    18:00 +18°C° 0.2 mm 8 m/S 746 mmHg 89%
    19:00 +18°C° 0.3 mm 8 m/S 746 mmHg 91%
    20:00 +17°C° 0.3 mm 8 m/S 746 mmHg 93%
    21:00 +16°C° 0.3 mm 9 m/S 746 mmHg 95%
    22:00 +16°C° 0.3 mm 7 m/S 746 mmHg 94%
    23:00 +15°C° 0.3 mm 6 m/S 746 mmHg 94%

    22 September, Sonntag

    Zeit Temperatur Niederschläge Wind Luftdruck Luftfeuchtigkeit
    00:00 +15°C° 0.3 mm 5 m/S 746 mmHg 93%
    01:00 +15°C° 0.1 mm 5 m/S 746 mmHg 93%
    02:00 +14°C° 0.1 mm 5 m/S 746 mmHg 93%
    03:00 +14°C° 0.1 mm 5 m/S 746 mmHg 93%
    04:00 +14°C° 0.5 mm 6 m/S 746 mmHg 92%
    05:00 +14°C° 0.5 mm 6 m/S 746 mmHg 91%
    06:00 +14°C° 0.5 mm 7 m/S 746 mmHg 89%
    07:00 +15°C° 0.1 mm 7 m/S 746 mmHg 87%
    08:00 +15°C° 0.1 mm 7 m/S 746 mmHg 84%
    09:00 +16°C° 0.1 mm 6 m/S 746 mmHg 81%
    10:00 +16°C° 0.2 mm 6 m/S 747 mmHg 78%
    11:00 +17°C° 0.2 mm 5 m/S 747 mmHg 76%
    12:00 +18°C° 0.2 mm 4 m/S 748 mmHg 73%
    13:00 +17°C° 0.1 mm 6 m/S 748 mmHg 74%
    14:00 +16°C° 0.1 mm 8 m/S 748 mmHg 75%
    15:00 +16°C° 0.1 mm 9 m/S 749 mmHg 77%
    16:00 +15°C° 0 mm 8 m/S 749 mmHg 77%
    17:00 +15°C° 0 mm 7 m/S 750 mmHg 78%
    18:00 +14°C° 0 mm 6 m/S 750 mmHg 79%
    19:00 +13°C° 0 mm 5 m/S 751 mmHg 82%
    20:00 +13°C° 0 mm 5 m/S 752 mmHg 85%
    21:00 +12°C° 0 mm 4 m/S 752 mmHg 89%
    22:00 +12°C° 0.1 mm 4 m/S 752 mmHg 89%
    23:00 +12°C° 0.1 mm 5 m/S 752 mmHg 90%

    23 September, Montag

    Zeit Temperatur Niederschläge Wind Luftdruck Luftfeuchtigkeit
    00:00 +12°C° 0.1 mm 5 m/S 752 mmHg 90%
    01:00 +12°C° 0.5 mm 5 m/S 752 mmHg 92%
    02:00 +13°C° 0.5 mm 6 m/S 751 mmHg 93%
    03:00 +13°C° 0.5 mm 6 m/S 751 mmHg 95%
    04:00 +14°C° 1.9 mm 7 m/S 750 mmHg 94%
    05:00 +13°C° 1.9 mm 8 m/S 750 mmHg 94%
    06:00 +15°C° 1.9 mm 9 m/S 749 mmHg 94%
    07:00 +15°C° 1.6 mm 9 m/S 748 mmHg 95%
    08:00 +16°C° 1.6 mm 10 m/S 748 mmHg 96%
    09:00 +16°C° 1.6 mm 10 m/S 747 mmHg 96%
    10:00 +17°C° 1.3 mm 10 m/S 747 mmHg 96%
    11:00 +17°C° 1.3 mm 11 m/S 747 mmHg 95%
    12:00 +18°C° 1.3 mm 11 m/S 746 mmHg 94%
    13:00 +18°C° 0.4 mm 11 m/S 746 mmHg 93%
    14:00 +18°C° 0.4 mm 11 m/S 747 mmHg 92%
    15:00 +18°C° 0.4 mm 10 m/S 747 mmHg 92%
    16:00 +17°C° 0.2 mm 10 m/S 747 mmHg 91%
    17:00 +17°C° 0.2 mm 10 m/S 747 mmHg 90%
    18:00 +17°C° 0.2 mm 10 m/S 748 mmHg 89%
    19:00 +16°C° 0.1 mm 10 m/S 748 mmHg 90%
    20:00 +16°C° 0.1 mm 10 m/S 748 mmHg 91%
    21:00 +16°C° 0.1 mm 9 m/S 749 mmHg 92%
    22:00 +16°C° 0.1 mm 9 m/S 749 mmHg 92%
    23:00 +16°C° 0.1 mm 9 m/S 749 mmHg 92%

    24 September, Dienstag

    Zeit Temperatur Niederschläge Wind Luftdruck Luftfeuchtigkeit
    00:00 +16°C° 0.1 mm 9 m/S 749 mmHg 93%
    01:00 +16°C° 0 mm 8 m/S 749 mmHg 94%
    02:00 +15°C° 0 mm 7 m/S 748 mmHg 94%
    03:00 +15°C° 0 mm 6 m/S 748 mmHg 95%
    04:00 +15°C° 0.5 mm 6 m/S 748 mmHg 95%
    05:00 +16°C° 0.5 mm 6 m/S 748 mmHg 95%
    06:00 +16°C° 0.5 mm 6 m/S 747 mmHg 95%
    07:00 +16°C° 0.8 mm 7 m/S 747 mmHg 94%
    08:00 +16°C° 0.8 mm 8 m/S 747 mmHg 94%
    09:00 +17°C° 0.8 mm 9 m/S 747 mmHg 94%
    10:00 +17°C° 0.9 mm 10 m/S 747 mmHg 89%
    11:00 +18°C° 0.9 mm 11 m/S 747 mmHg 85%
    12:00 +18°C° 0.9 mm 11 m/S 747 mmHg 81%
    13:00 +18°C° 0 mm 11 m/S 747 mmHg 79%
    14:00 +18°C° 0 mm 10 m/S 747 mmHg 77%
    15:00 +17°C° 0 mm 9 m/S 747 mmHg 76%
    16:00 +17°C° 0.1 mm 9 m/S 747 mmHg 78%
    17:00 +16°C° 0.1 mm 8 m/S 747 mmHg 81%
    18:00 +15°C° 0.1 mm 8 m/S 747 mmHg 84%
    19:00 +15°C° 0.3 mm 8 m/S 748 mmHg 85%
    20:00 +13°C° 0.3 mm 8 m/S 748 mmHg 86%
    21:00 +13°C° 0.3 mm 8 m/S 748 mmHg 87%
    22:00 +14°C° 0.5 mm 7 m/S 748 mmHg 87%
    23:00 +14°C° 0.5 mm 6 m/S 747 mmHg 87%
    Mehr zeigen